Wind_Speed
16 16 15 14 14 13 12 9 4 1 2 2 1 1 1 1 1 1 1 1 1 2 1 1 1 3 5 4 9 9 8 13 10 8 13 5 7 3 4 4 5 2 2 5 5
17 16 15 15 14 13 12 11 8 6 2 2 4 4 4 2 2 2 2 2 1 2 0 1 3 5 6 7 4 11 12 13 16 25 7 4 5 3 4 4 3 1 0 4 4
17 16 15 14 13 12 12 11 9 7 5 3 1 5 9 8 6 5 3 3 2 1 0 1 4 6 8 2 4 13 11 12 20 9 3 3 3 8 5 2 3 2 1 3 4
16 16 15 14 13 12 11 10 9 8 6 5 4 5 7 8 8 7 6 5 4 4 2 3 7 9 7 8 6 14 12 12 9 5 8 14 6 4 3 6 2 2 2 2 2
15 15 15 15 14 13 13 12 11 10 7 5 4 5 7 9 10 7 7 6 6 7 5 5 7 3 4 1 8 13 17 12 15 12 9 9 5 2 4 4 1 2 2 2 5
14 14 13 13 13 13 13 13 12 11 9 6 5 5 4 6 9 9 8 8 7 8 7 6 7 5 7 6 10 8 17 7 16 16 17 8 5 6 4 2 0 4 3 1 4
14 13 13 13 12 12 11 10 10 12 11 7 5 5 5 5 5 9 10 9 9 9 8 8 9 4 5 11 7 7 15 4 17 16 17 15 12 10 7 2 0 2 4 2 3
15 16 16 15 13 11 9 9 9 9 12 8 5 5 4 4 6 5 9 10 11 10 9 8 9 8 12 9 11 5 11 13 21 21 10 9 14 16 5 3 1 4 4 2 3
20 19 18 16 13 10 8 8 8 8 10 11 6 5 4 5 5 8 8 12 9 10 10 9 8 6 17 12 13 10 12 10 18 6 4 13 13 5 2 4 7 5 5 4 5
20 18 16 14 10 8 8 7 7 7 7 9 8 5 5 6 5 7 9 10 9 9 10 9 9 7 12 15 8 4 13 8 8 8 8 5 7 13 9 14 9 7 8 5 3
16 13 12 12 10 9 9 9 8 7 6 7 7 8 5 5 5 5 8 9 8 8 11 11 10 4 21 16 7 15 15 9 9 8 4 5 6 15 8 6 6 9 3 7 5
12 11 12 12 11 10 10 11 11 9 7 8 7 8 8 4 4 4 5 7 6 10 11 11 3 6 13 14 6 12 16 18 10 7 7 8 10 9 6 4 7 9 10 10 7
10 11 11 11 11 11 12 12 12 11 10 8 6 6 6 5 4 3 4 5 6 8 12 11 6 12 17 5 4 6 20 21 14 8 3 7 5 12 14 11 5 16 14 15 14
10 11 12 13 12 12 12 13 14 13 12 4 4 4 5 4 3 3 3 3 6 8 10 11 16 11 13 10 9 11 16 18 19 12 8 6 17 12 3 4 7 3 8 12 11
10 10 11 17 14 12 12 13 15 13 9 12 6 8 6 6 4 4 4 4 3 7 9 8 13 17 12 10 7 9 20 10 8 13 12 8 7 10 10 5 3 2 2 6 8
13 15 14 15 12 11 13 15 15 12 8 17 9 9 6 7 5 5 5 6 7 7 8 10 13 14 11 7 11 19 6 8 4 7 16 7 16 24 19 15 12 2 2 5 9
16 17 16 16 12 9 10 12 13 11 7 11 20 8 10 7 8 5 6 7 8 8 9 9 10 10 13 12 9 6 10 7 3 10 14 19 9 19 25 26 9 9 12 7 8
17 17 18 15 12 11 12 13 13 10 9 7 15 18 9 6 7 9 6 7 7 6 6 8 13 12 9 9 17 5 7 15 9 8 19 5 3 22 25 27 24 19 11 11 15
18 18 16 14 13 14 15 15 14 15 13 14 16 12 15 10 13 16 13 7 7 7 13 11 18 16 21 10 16 8 19 5 10 9 15 20 7 24 26 27 21 24 15 16 14
18 17 17 16 18 19 18 17 17 17 18 16 19 16 16 17 16 18 15 16 12 16 13 15 7 15 17 18 19 17 15 11 6 6 11 13 24 16 23 17 26 19 18 14 13
22 21 22 22 22 21 19 16 17 19 18 18 18 21 18 14 19 19 19 15 16 13 19 20 15 15 15 20 12 13 19 23 7 12 11 7 20 25 17 22 26 23 16 11 11
24 25 24 24 23 22 20 19 18 18 21 17 19 19 25 21 21 20 24 18 14 21 19 17 16 16 15 17 14 18 16 15 12 9 14 15 5 19 18 19 26 18 13 12 12
27 28 26 27 27 28 27 23 22 21 21 23 22 23 24 30 31 31 22 18 19 17 17 18 17 19 17 26 17 18 22 17 18 19 16 18 26 25 17 22 21 18 13 14 16
27 27 25 24 26 26 29 29 29 28 25 27 26 25 26 29 33 35 38 29 20 28 25 28 23 21 19 24 26 24 20 20 23 16 11 9 25 14 25 19 17 18 15 14 16
26 28 27 29 27 26 29 29 28 28 29 28 28 26 27 30 31 29 34 32 25 24 33 35 37 30 24 33 33 27 19 17 20 25 23 20 19 19 16 16 11 16 16 19 17
27 27 27 27 28 29 29 28 30 29 30 31 31 26 28 30 30 29 22 26 31 26 33 36 37 33 30 25 35 30 34 9 16 18 20 17 11 19 15 29 26 22 18 19 20
30 31 31 31 31 31 30 31 29 30 29 33 29 36 30 30 36 38 41 39 45 48 42 36 34 32 36 29 34 37 21 15 23 21 20 25 20 23 28 37 26 24 20 19 19
Wind_Direction
61 61 58 56 56 58 59 62 76 116 212 229 218 225 225 201 218 243 243 259 259 277 282 63 71 156 151 107 322 284 263 261 244 207 239 279 302 343 341 335 320 331 282 262 188
56 53 55 55 54 55 54 51 52 49 45 250 237 235 254 261 282 277 270 270 252 277 318 74 161 189 193 152 252 298 274 290 261 219 183 291 286 332 357 335 335 31 63 261 232
55 53 49 49 49 48 45 42 38 32 18 342 309 247 246 252 261 282 282 263 250 254 89 123 163 200 326 339 282 304 298 278 230 158 160 220 259 28 356 17 8 315 12 291 267
45 43 42 40 40 39 37 32 23 18 7 344 294 262 262 258 258 264 261 260 239 227 204 180 175 209 225 40 334 329 296 261 245 201 206 200 203 68 310 344 0 308 45 21 196
30 27 25 23 21 20 16 15 10 359 349 347 328 282 265 257 260 261 248 243 230 236 206 211 216 309 45 90 353 321 322 247 238 198 208 201 131 247 294 303 34 316 354 229 214
10 9 9 6 4 1 359 4 5 358 344 329 315 299 304 298 259 253 247 240 232 235 214 219 223 239 353 355 315 339 358 275 236 207 207 193 200 193 232 263 63 96 61 34 139
348 348 348 348 347 346 347 348 354 6 359 335 317 298 296 281 289 254 241 235 228 231 224 211 233 262 253 246 258 355 2 53 209 209 218 197 218 196 180 160 115 131 142 270 356
332 331 330 331 333 336 342 348 350 356 5 354 340 326 313 282 274 276 241 234 224 217 230 224 234 242 233 257 302 172 42 46 0 207 241 153 222 151 169 140 239 148 116 184 211
322 320 321 325 329 333 337 341 347 354 2 8 4 353 344 313 281 264 258 235 222 211 211 215 230 250 274 325 306 274 73 28 51 58 188 253 260 227 248 175 226 171 146 196 198
323 322 323 323 324 326 326 332 340 347 0 4 12 356 12 356 325 268 256 246 224 211 203 209 210 216 266 292 337 329 68 30 44 38 21 19 214 181 206 206 179 186 151 190 222
326 327 331 327 322 315 315 319 320 329 346 344 348 357 332 335 336 294 264 258 230 205 203 208 202 284 287 312 294 334 44 358 351 346 343 287 160 167 206 237 294 224 211 207 168
338 331 334 341 342 327 323 323 316 312 319 327 324 345 351 324 307 324 281 255 232 205 203 204 45 314 256 283 268 326 341 313 308 329 344 0 89 173 221 196 239 225 230 199 229
354 350 343 326 325 326 332 331 324 315 306 297 298 325 340 338 296 291 307 255 234 214 206 190 132 279 271 288 335 307 310 317 311 283 161 273 177 178 192 270 232 239 251 242 223
337 338 329 319 310 305 315 323 325 320 310 293 315 308 309 321 315 282 289 249 232 213 211 197 194 221 281 236 171 269 225 262 308 318 306 305 294 189 45 288 291 282 257 234 246
325 328 326 330 300 297 306 313 323 320 315 324 324 312 296 296 321 315 259 251 230 216 220 211 232 250 246 222 187 266 283 272 280 287 343 335 310 16 282 216 303 42 180 194 237
304 314 321 322 312 293 293 300 316 316 325 302 313 295 285 292 290 297 281 259 233 237 224 218 224 246 243 236 234 208 92 44 290 337 325 14 339 305 301 272 200 355 8 239 286
300 303 307 312 308 300 294 299 310 311 290 286 304 284 280 268 270 272 276 262 253 237 240 233 249 245 210 230 268 233 66 299 284 234 254 276 300 285 285 282 295 311 273 221 252
300 302 307 308 300 295 293 294 304 290 278 272 282 295 285 239 254 271 263 254 253 234 198 286 272 296 279 208 216 205 231 247 259 289 329 354 266 286 310 317 307 306 294 284 255
303 298 299 298 306 303 300 298 289 287 243 198 255 248 257 251 230 277 287 273 270 257 210 216 271 283 277 252 218 203 203 258 282 293 285 307 211 295 294 303 310 295 279 260 253
306 299 294 297 300 302 301 297 291 282 277 268 256 248 224 246 238 243 249 277 255 246 254 164 267 236 243 272 247 221 222 194 247 244 229 196 242 243 275 300 309 294 285 282 257
308 303 299 299 299 299 298 296 292 287 284 275 262 242 230 257 240 240 258 250 258 247 241 193 209 249 219 242 259 249 214 189 203 246 235 243 267 267 265 301 303 294 293 294 266
311 306 305 304 300 296 293 289 285 281 280 277 267 250 233 212 237 241 246 242 249 245 239 233 219 239 273 265 277 205 227 234 217 259 243 245 329 255 284 291 290 289 285 289 271
305 302 302 300 294 291 288 284 281 277 274 278 273 263 246 234 225 211 223 223 241 244 220 243 236 225 241 232 206 233 226 199 227 241 224 253 262 272 285 288 283 283 292 284 278
305 303 302 296 293 290 283 282 280 276 272 271 270 267 261 247 241 231 220 208 236 234 230 217 215 227 236 265 243 209 232 238 225 226 266 274 272 250 281 269 271 282 292 292 291
307 303 303 301 295 289 284 284 280 277 276 269 267 266 264 256 256 248 239 223 226 228 223 232 229 209 203 262 253 257 194 194 228 218 214 244 253 271 239 262 258 278 289 297 298
312 312 313 307 302 299 291 283 279 275 270 268 272 263 257 254 251 238 234 239 228 251 248 227 235 211 208 255 260 267 225 184 223 221 229 222 269 289 295 281 286 284 286 287 291
313 309 306 302 299 295 291 291 287 276 268 267 265 265 258 248 249 245 226 220 224 224 233 233 222 226 214 218 259 260 235 199 241 245 241 224 221 246 261 264 274 282 285 285 285
Height
5879 5878 5878 5877 5876 5875 5875 5874 5873 5874 5874 5874 5875 5875 5874 5874 5874 5873 5874 5874 5873 5873 5873 5873 5873 5873 5873 5874 5877 5876 5875 5872 5873 5874 5873 5873 5875 5872 5870 5869 5868 5868 5868 5868 5871
5882 5881 5880 5879 5879 5878 5877 5876 5875 5874 5874 5874 5874 5874 5874 5874 5874 5874 5874 5873 5874 5873 5873 5874 5872 5870 5872 5873 5872 5873 5874 5870 5869 5871 5870 5873 5875 5873 5871 5870 5869 5869 5868 5868 5869
5885 5884 5883 5882 5880 5879 5878 5877 5876 5875 5874 5873 5873 5873 5873 5873 5874 5874 5873 5873 5874 5874 5874 5874 5871 5869 5870 5872 5875 5871 5871 5867 5854 5867 5871 5871 5875 5871 5871 5870 5870 5870 5869 5869 5869
5888 5886 5885 5883 5882 5881 5879 5878 5877 5875 5874 5873 5872 5871 5871 5871 5873 5872 5873 5873 5873 5874 5874 5873 5870 5868 5869 5870 5870 5870 5869 5867 5867 5870 5870 5870 5872 5871 5871 5871 5871 5872 5871 5871 5871
5889 5888 5886 5885 5883 5881 5880 5878 5876 5875 5873 5872 5871 5870 5869 5869 5870 5870 5871 5872 5873 5873 5874 5872 5870 5871 5863 5866 5868 5869 5866 5866 5867 5869 5869 5866 5869 5871 5872 5872 5872 5873 5872 5872 5871
5890 5888 5887 5885 5883 5882 5880 5878 5876 5874 5872 5871 5870 5869 5868 5868 5867 5868 5869 5870 5872 5873 5873 5872 5871 5871 5870 5871 5869 5870 5863 5864 5867 5867 5867 5869 5869 5869 5871 5872 5873 5874 5874 5873 5874
5890 5888 5886 5884 5883 5881 5879 5878 5876 5874 5872 5870 5869 5868 5867 5867 5866 5865 5867 5868 5870 5871 5873 5872 5871 5871 5872 5868 5865 5868 5867 5862 5866 5870 5867 5868 5868 5869 5869 5871 5873 5875 5876 5876 5875
5889 5886 5884 5883 5881 5879 5878 5876 5875 5874 5871 5869 5868 5867 5866 5865 5865 5864 5864 5865 5867 5869 5871 5872 5871 5872 5867 5860 5864 5862 5869 5868 5864 5865 5867 5870 5866 5866 5870 5871 5873 5875 5876 5877 5875
5886 5884 5882 5880 5879 5877 5876 5875 5874 5873 5871 5869 5868 5867 5866 5865 5864 5863 5863 5863 5865 5868 5869 5870 5870 5871 5861 5855 5865 5864 5865 5872 5867 5867 5874 5874 5871 5870 5869 5871 5872 5876 5876 5875 5877
5883 5880 5879 5877 5876 5875 5874 5873 5873 5872 5870 5869 5868 5868 5867 5865 5863 5862 5861 5861 5865 5866 5868 5869 5869 5867 5866 5865 5863 5860 5862 5872 5872 5871 5869 5871 5868 5869 5871 5874 5872 5877 5875 5874 5876
5880 5878 5876 5875 5874 5873 5872 5872 5872 5871 5869 5869 5868 5866 5865 5865 5863 5862 5861 5861 5863 5865 5867 5868 5869 5870 5869 5861 5870 5871 5853 5869 5873 5871 5871 5870 5870 5869 5870 5872 5874 5878 5877 5875 5877
5879 5877 5875 5874 5873 5872 5871 5870 5869 5869 5868 5867 5866 5865 5864 5863 5863 5862 5861 5861 5862 5863 5865 5867 5870 5872 5870 5868 5870 5870 5871 5872 5874 5872 5869 5870 5871 5870 5870 5874 5875 5878 5878 5876 5878
5878 5876 5874 5873 5871 5870 5870 5868 5866 5865 5865 5865 5864 5863 5863 5863 5862 5862 5861 5861 5861 5862 5864 5866 5874 5876 5871 5871 5874 5877 5872 5871 5873 5870 5871 5866 5867 5866 5869 5870 5872 5876 5879 5878 5876
5877 5875 5873 5871 5871 5869 5868 5867 5865 5863 5862 5863 5863 5863 5862 5861 5861 5861 5860 5861 5861 5862 5863 5865 5868 5871 5871 5873 5877 5880 5878 5876 5873 5872 5874 5872 5870 5864 5872 5872 5869 5875 5875 5873 5873
5875 5873 5872 5868 5867 5867 5867 5865 5864 5862 5861 5862 5861 5861 5860 5861 5861 5860 5860 5860 5860 5861 5863 5866 5866 5867 5868 5870 5876 5879 5873 5876 5876 5870 5873 5871 5868 5871 5874 5873 5868 5870 5873 5873 5871
5873 5871 5869 5867 5865 5865 5864 5863 5863 5863 5860 5858 5859 5858 5859 5858 5859 5859 5859 5859 5859 5860 5860 5862 5864 5864 5866 5867 5870 5871 5873 5873 5872 5874 5870 5868 5867 5865 5867 5864 5862 5871 5870 5871 5867
5869 5868 5866 5864 5863 5862 5862 5861 5862 5860 5861 5861 5856 5857 5856 5857 5857 5857 5857 5858 5858 5858 5859 5860 5861 5862 5863 5866 5867 5868 5871 5875 5874 5876 5875 5874 5872 5870 5867 5865 5868 5873 5872 5867 5872
5866 5865 5863 5861 5859 5859 5859 5860 5859 5859 5859 5862 5857 5853 5854 5854 5855 5855 5855 5856 5856 5856 5861 5862 5863 5862 5862 5864 5865 5869 5873 5872 5874 5871 5863 5871 5872 5866 5867 5863 5863 5866 5869 5870 5871
5863 5861 5859 5858 5857 5856 5856 5856 5856 5855 5855 5858 5856 5855 5853 5854 5857 5855 5853 5854 5854 5855 5857 5864 5866 5865 5861 5861 5864 5866 5868 5871 5873 5875 5873 5872 5869 5869 5866 5866 5867 5865 5868 5869 5870
5859 5858 5857 5855 5854 5853 5852 5851 5850 5850 5850 5851 5851 5853 5853 5856 5856 5856 5857 5855 5854 5857 5856 5858 5864 5864 5861 5861 5861 5862 5866 5870 5873 5875 5875 5872 5867 5862 5863 5865 5865 5864 5862 5866 5867
5855 5853 5852 5851 5849 5848 5847 5847 5845 5844 5844 5844 5845 5846 5848 5851 5854 5854 5854 5855 5855 5854 5855 5855 5859 5859 5860 5859 5858 5860 5861 5864 5868 5870 5867 5869 5865 5864 5863 5863 5862 5861 5860 5862 5864
5850 5848 5847 5845 5845 5842 5842 5840 5840 5839 5837 5838 5837 5838 5839 5842 5847 5850 5850 5851 5851 5850 5851 5850 5853 5857 5856 5857 5856 5857 5863 5862 5866 5869 5868 5866 5855 5858 5862 5862 5860 5859 5859 5859 5860
5845 5842 5841 5838 5836 5834 5833 5834 5833 5832 5832 5831 5831 5831 5832 5833 5835 5837 5841 5846 5845 5843 5846 5847 5848 5850 5852 5849 5852 5854 5857 5858 5861 5863 5863 5862 5859 5858 5859 5858 5858 5856 5856 5856 5856
5837 5834 5833 5832 5828 5826 5824 5824 5823 5823 5824 5823 5823 5823 5824 5824 5826 5828 5831 5836 5838 5838 5838 5840 5842 5846 5849 5844 5845 5844 5853 5855 5856 5860 5861 5857 5851 5852 5849 5854 5856 5853 5853 5853 5852
5831 5828 5826 5822 5821 5821 5817 5816 5815 5815 5814 5814 5814 5815 5816 5816 5816 5819 5823 5828 5828 5827 5829 5833 5834 5838 5841 5836 5838 5838 5840 5846 5852 5854 5854 5850 5852 5851 5836 5846 5851 5851 5851 5849 5848
5825 5822 5819 5817 5814 5811 5810 5808 5806 5806 5806 5805 5803 5805 5805 5806 5808 5810 5816 5818 5821 5821 5818 5823 5825 5830 5831 5835 5829 5832 5829 5834 5845 5846 5848 5850 5850 5838 5840 5839 5844 5846 5847 5846 5845
5817 5814 5812 5810 5806 5804 5802 5799 5798 5797 5797 5795 5797 5793 5796 5797 5793 5793 5796 5801 5802 5806 5808 5814 5817 5823 5824 5830 5824 5822 5832 5831 5840 5841 5842 5844 5849 5845 5838 5835 5844 5841 5842 5842 5842